[[{"header":{"parameterUnit":"m.s-1","parameterCategory":1,"la1":30.2992,"la2":30.254,"lo1":-89.0895,"lo2":-89.0443,"dy":0.0025,"dx":0.0025,"nx":19,"ny":19,"refTime":"2026-05-10T21:00:00:Z","depth":0,"parameterNumber":2,"parameterNumberName":"U-component_of_WINDS"},"data":[0,0,0,-3.4906,-3.4908,-3.4986,-3.4986,-3.5106,-3.5107,0,0,0,0,0,0,0,0,0,0,0,-3.4894,-3.4895,-3.4906,-3.4908,-3.4986,-3.4986,-3.5105,-3.5107,0,0,0,0,0,0,0,0,0,0,0,-3.4894,-3.4895,-3.4896,-3.4909,-3.4986,-3.4986,-3.5105,-3.504,0,0,0,0,0,0,0,0,0,0,-3.4961,-3.496,-3.4895,-3.4896,-3.4909,-3.4986,-3.4986,-3.5036,-3.5044,-3.5079,0,-3.5112,0,-3.5111,-3.5116,-3.5117,0,0,0,-3.4901,-3.4954,-3.4965,-3.4897,-3.491,-3.4986,-3.4949,-3.504,-3.5049,-3.5089,-3.5113,-3.5117,-3.5113,-3.5117,-3.5118,-3.5343,-3.5345,0,0,-3.4896,-3.4914,-3.4959,-3.4971,-3.4959,-3.4946,-3.4951,-3.5045,-3.5073,-3.5113,-3.5119,-3.5115,-3.5118,-3.5119,-3.5342,-3.5344,0,0,0,-3.4889,-3.4911,-3.492,-3.4967,-3.4979,-3.4949,-3.4954,-3.5069,-3.507,-3.5121,-3.5117,-3.5119,-3.512,-3.534,-3.5343,-3.5428,0,0,0,-3.4886,-3.4907,-3.4918,-3.493,-3.4978,-3.5024,-3.4976,-3.5064,-3.5073,-3.5116,-3.5119,-3.5122,-3.5339,-3.5342,-3.5423,-3.5465,0,0,0,-3.4885,-3.4907,-3.4922,-3.4931,-3.4965,-3.5022,-3.5029,-3.5065,-3.5072,-3.5117,-3.5122,-3.5338,-3.5341,-3.5417,-3.5457,-3.5529,0,0,0,-3.489,-3.4997,-3.4923,-3.5043,-3.4964,-3.5075,-3.5028,-3.511,-3.5159,-3.5119,-3.5339,-3.5342,-3.5416,-3.5452,-3.5524,-3.5592,-3.5622,0,0,-3.5035,-3.5015,-3.5084,-3.502,-3.5149,-3.5062,-3.5204,-3.5233,-3.5222,-3.5304,-3.5309,-3.5424,-3.5456,-3.5528,-3.579,-3.5814,0,0,0,-3.5136,-3.5186,-3.5216,-3.5263,-3.5288,-3.5313,-3.5318,-3.533,-3.5398,-3.5267,-3.5471,-3.5489,-3.553,-3.5562,-3.5583,-3.5617,-3.5358,-3.5358,-3.5358,-3.5365,-3.5346,-3.5458,-3.5449,-3.5496,-3.5501,-3.5538,-3.5554,-3.5521,-3.557,-3.5593,-3.5754,-3.5791,-3.5807,-3.5843,-3.5629,-3.5629,-3.563,-3.563,-3.5575,-3.5641,-3.5596,-3.5689,-3.5669,-3.5747,-3.5758,-3.5732,-3.5803,-3.5734,-3.577,-3.5694,-3.5834,-3.5864,-3.5636,-3.5635,-3.5634,-3.5634,-3.5633,-3.572,-3.5749,-3.5761,-3.5829,-3.5884,-3.5872,-3.5943,-3.5922,-3.5904,-3.5939,-3.5962,-3.596,-3.5955,-3.5952,-3.5953,-3.5953,-3.5954,-3.5954,-3.5954,-3.5865,-3.5877,-3.5937,-3.5975,-3.6004,-3.604,-3.6049,-3.6078,-3.6104,-3.6083,-3.6084,-3.6045,-3.5852,-3.5802,-3.5963,-3.5961,-3.596,-3.5959,-3.5959,-3.6081,-3.6029,-3.6123,-3.6153,-3.6196,-3.6253,-3.6228,-3.6288,-3.6309,-3.6344,-3.63,-3.6161,-3.6139,-3.6123,-3.6081,-3.6304,-3.6304,-3.6304,-3.6304,-3.6202,-3.619,-3.6282,-3.633,-3.6375,-3.6363,-3.6472,-3.6482,-3.6485,-3.6497,-3.6463,-3.6408,-3.6392,-3.6379,-3.6357,-3.6318,-3.6596,-3.6597,-3.6597,-3.6333,-3.6325,-3.6419,-3.6421,-3.6455,-3.6485,-3.6587,-3.6645,-3.6638,-3.6608,-3.6506,-3.6494,-3.6404,-3.6376,-3.634,-3.6307,-3.6235,0,0]},{"header":{"parameterUnit":"m.s-1","parameterCategory":1,"la1":30.2992,"la2":30.254,"lo1":-89.0895,"lo2":-89.0443,"dy":0.0025,"dx":0.0025,"nx":19,"ny":19,"refTime":"2026-05-10T21:00:00:Z","depth":0,"parameterNumber":3,"parameterNumberName":"V-component_of_WINDS"},"data":[0,0,0,1.8826,1.8825,1.8799,1.8799,1.8748,1.8747,0,0,0,0,0,0,0,0,0,0,0,1.8826,1.8825,1.8826,1.8825,1.8799,1.8799,1.8748,1.8747,0,0,0,0,0,0,0,0,0,0,0,1.8826,1.8826,1.8825,1.8825,1.8799,1.8799,1.8748,1.8773,0,0,0,0,0,0,0,0,0,0,1.8802,1.8795,1.8826,1.8825,1.8825,1.8799,1.8799,1.8775,1.8772,1.8753,0,1.8737,0,1.8742,1.8743,1.8743,0,0,0,1.883,1.8797,1.8798,1.8825,1.8825,1.8799,1.8812,1.8773,1.877,1.8749,1.8737,1.8735,1.8741,1.8743,1.8742,1.8626,1.8626,0,0,1.8831,1.8816,1.88,1.8795,1.8801,1.8813,1.8811,1.8771,1.8756,1.8736,1.8734,1.874,1.8742,1.8742,1.8627,1.8626,0,0,0,1.8832,1.8817,1.8819,1.8797,1.8794,1.8812,1.881,1.8757,1.8759,1.8734,1.8739,1.8742,1.8741,1.8628,1.8627,1.8575,0,0,0,1.8834,1.8818,1.8819,1.8809,1.8794,1.8776,1.8796,1.8762,1.8758,1.874,1.8742,1.874,1.8629,1.8627,1.8578,1.8552,0,0,0,1.883,1.8817,1.8811,1.8809,1.8797,1.8777,1.8777,1.8762,1.8761,1.8743,1.874,1.8629,1.8628,1.8581,1.8557,1.8517,0,0,0,1.8821,1.8763,1.881,1.8747,1.8797,1.8746,1.8777,1.8739,1.8717,1.8741,1.8629,1.8627,1.8582,1.856,1.852,1.848,1.8463,0,0,1.8739,1.8753,1.8717,1.8758,1.8695,1.8751,1.8679,1.8672,1.8683,1.8644,1.8641,1.8577,1.8557,1.8518,1.8371,1.8357,0,0,0,1.8686,1.866,1.8647,1.8627,1.8622,1.8615,1.8622,1.8619,1.8588,1.8661,1.8553,1.8541,1.8519,1.85,1.8488,1.847,1.8618,1.8618,1.8619,1.8546,1.8566,1.8508,1.8525,1.8505,1.8513,1.8498,1.8496,1.8519,1.8494,1.8481,1.8391,1.8369,1.836,1.834,1.8463,1.8463,1.8463,1.8463,1.8427,1.8393,1.8429,1.8386,1.8406,1.8369,1.8375,1.8393,1.836,1.8401,1.8382,1.8424,1.8344,1.8328,1.8459,1.846,1.846,1.846,1.8461,1.8337,1.8324,1.8324,1.8299,1.8276,1.8295,1.8262,1.8282,1.8299,1.8281,1.827,1.8271,1.8273,1.8275,1.8274,1.8274,1.8274,1.8274,1.8273,1.8242,1.8245,1.8216,1.8208,1.8199,1.8188,1.8197,1.8187,1.8181,1.8197,1.8197,1.8223,1.8334,1.836,1.8269,1.8269,1.827,1.8271,1.8271,1.8112,1.8145,1.8102,1.8092,1.8085,1.8061,1.8088,1.8066,1.8061,1.8044,1.8075,1.8154,1.8168,1.8177,1.8199,1.8071,1.8071,1.8071,1.8071,1.8035,1.8046,1.8006,1.799,1.7976,1.7997,1.7945,1.7951,1.7962,1.796,1.7981,1.8013,1.8022,1.8031,1.8043,1.8064,1.7905,1.7904,1.7904,1.7956,1.7966,1.7919,1.7934,1.793,1.7925,1.7877,1.7855,1.7874,1.7898,1.7958,1.7965,1.8016,1.8032,1.8055,1.8074,1.8113,0,0]}]]